[[{"header":{"parameterUnit":"m.s-1","parameterCategory":1,"la1":30.2991,"la2":30.254,"lo1":-89.0895,"lo2":-89.0444,"dy":0.0017,"dx":0.0017,"nx":28,"ny":28,"refTime":"2025-07-22T03:00:00:Z","depth":0,"parameterNumber":2,"parameterNumberName":"U-component_of_WINDS"},"data":[0,0,0,0,0,0,0,0,0,0,0,0,0,0,0,0,0,0,0,0,0,0,0,0,0,0,0,0,0,0,0,0,0,0,0,0,0,0,0,0,0,0,0,0,0,0,0,0,0,0,0,0,0,0,0,0,0,0,0.994,0.994,0,0.9965,0.9965,0.9966,0.9918,0.9916,0.9914,0.9913,0.9944,0.9947,0.9949,0,0,0,0,0,0,0,0,0,0,0,0,0,0.9855,0.9857,0.994,0.994,0.994,0.9965,0.9965,0.9966,0.9918,0.9916,0.9914,0.9912,0.9943,0.9946,0.9949,0,0,0,0,0,0,0,0,0,0,0,0,0,0.9888,0.9858,0.994,0.9919,0.9918,0.9965,0.9965,0.9966,0.9918,0.9916,0.9913,0.9911,0.9943,0.9946,0.9949,1.002,0,0,0.996,0.9962,0,0,0,0,0,0,0,0,0.9886,0.9891,0.9922,0.9921,0.9919,0.9936,0.9947,0.9984,0.9919,0.9918,0.9913,0.991,0.9944,0.9947,0.9957,1.0021,1.0022,0.996,0.9963,0.9964,0.9965,0,0,0,0,0,0,0,0.9884,0.989,0.995,0.9922,0.9921,0.9911,0.9913,0.9954,0.9944,0.9918,0.9915,0.9918,0.9942,0.9954,0.9958,1.0023,0.996,0.9963,0.9966,0.9967,1.0148,1.0151,0,0,0,0,0,0,0.9883,0.9888,0.9949,0.9951,0.9896,0.9914,0.9916,0.9933,0.9944,0.9943,0.992,0.9916,0.9949,0.9954,0.9959,1.0044,0.9964,0.9967,0.9969,1.0146,1.0149,1.0152,0,0,0,0,0,0,0.9882,0.9889,0.9948,0.9918,0.9925,0.9918,0.9937,0.9935,0.9946,0.9945,0.9944,0.9933,0.9947,0.9954,1.0005,1.0044,0.9969,0.9972,1.0143,1.0147,1.0151,1.0213,0,0,0,0,0,0,0.9879,0.9889,0.9914,0.9919,0.9927,0.9993,0.9939,0.9937,0.9952,0.9946,0.9957,0.9957,0.9946,1.0,1.0009,1.0047,0.9975,1.0139,1.0144,1.0149,1.0207,1.0219,1.0228,0,0,0,0,0,0.9877,0.9931,0.9915,0.9923,0.9958,0.9995,0.9999,0.9984,0.9955,0.9981,0.9981,0.9956,1.0038,1.0006,1.0015,1.0055,1.0137,1.0143,1.0149,1.0203,1.0216,1.0228,0,0,0,0,0,0,0.9932,0.9931,0.9914,0.9971,0.9983,0.9986,1.0019,0.9999,1.0021,1.0015,0.9997,1.0,1.0056,1.006,1.0025,1.0125,1.0083,1.0091,1.012,1.0133,1.0144,1.0143,0.9978,0,0,0,0,0,0.9951,0.9979,0.9977,1.0028,1.0035,1.0026,1.0042,1.0029,1.0042,1.0047,1.005,1.0065,1.0094,1.0113,1.014,1.0207,1.0211,1.024,1.025,1.0259,1.0267,1.0306,1.032,1.0172,1.0172,1.0172,0,0,0.999,0.9993,1.0012,1.004,1.0047,1.0079,1.0031,1.0066,1.0091,1.0053,1.0102,1.0105,1.012,1.0181,1.0207,1.0186,1.0308,1.0266,1.0273,1.0277,1.0314,1.0328,1.034,1.0176,1.0175,1.0175,0,0,1.0079,1.0082,1.0126,1.0135,1.0147,1.0141,1.0152,1.0158,1.0159,1.0207,1.018,1.0209,1.0259,1.0272,1.0285,1.0379,1.0359,1.0389,1.0444,1.0482,1.0494,1.0504,1.0541,1.0554,1.0396,1.0396,1.0396,0,1.0127,1.0172,1.0152,1.019,1.0204,1.0169,1.0216,1.0225,1.0246,1.0258,1.0233,1.0296,1.0304,1.0368,1.0391,1.0402,1.0416,1.0388,1.0493,1.0503,1.0513,1.0548,1.0561,1.04,1.04,1.0399,1.0399,0,1.0232,1.0264,1.0298,1.0318,1.0336,1.0378,1.0366,1.0387,1.0373,1.037,1.0422,1.043,1.0458,1.0472,1.0459,1.0536,1.0522,1.0496,1.0453,1.0531,1.0564,1.0576,1.0405,1.0404,1.0403,1.0402,0,0,1.0357,1.0365,1.0379,1.0388,1.0399,1.0425,1.0466,1.0493,1.0512,1.0528,1.0564,1.0607,1.0583,1.0598,1.0586,1.0619,1.0697,1.0589,1.0589,1.0611,1.0785,1.0807,1.0823,1.0683,1.0685,1.0687,1.0785,0,1.0447,1.0516,1.05,1.057,1.0601,1.0569,1.0605,1.0618,1.0616,1.0644,1.0643,1.0675,1.0639,1.0649,1.068,1.0681,1.0733,1.0673,1.0719,1.0721,1.0719,1.0839,1.0862,1.0955,1.0797,1.08,1.0801,0,1.0561,1.0581,1.0653,1.0661,1.0673,1.0706,1.073,1.0756,1.077,1.0767,1.0784,1.0766,1.081,1.0765,1.0827,1.0787,1.0804,1.0808,1.0811,1.0817,1.0768,1.0851,1.0983,1.0998,1.082,1.0819,1.0817,0,1.0649,1.0693,1.0742,1.0751,1.0761,1.0785,1.0791,1.0802,1.082,1.0841,1.0853,1.088,1.0896,1.0918,1.0909,1.0876,1.0974,1.0927,1.0975,1.0976,1.0999,1.0998,1.1139,1.1006,1.1006,1.1005,1.1005,0,1.0753,1.0799,1.0782,1.0813,1.0865,1.0847,1.0899,1.0901,1.0912,1.0944,1.0918,1.095,1.0934,1.0966,1.0959,1.1013,1.1019,1.102,1.1019,1.1024,1.1025,1.1038,1.1032,1.1009,1.1008,1.1007,1.1007,0,1.086,1.085,1.0903,1.0907,1.091,1.0948,1.0953,1.0983,1.098,1.1022,1.103,1.1026,1.1062,1.1054,1.1093,1.1089,1.1157,1.1146,1.1152,1.1151,1.12,1.1197,1.1356,1.1378,1.1229,1.123,1.1231,0,1.0928,1.0963,1.0972,1.0991,1.0998,1.1029,1.1047,1.1031,1.1051,1.107,1.1099,1.1132,1.1157,1.1216,1.1218,1.1248,1.124,1.1293,1.1244,1.125,1.1244,1.1243,1.1248,1.1304,1.1306,1.1307,1.1308,0,1.1051,1.1045,1.1071,1.1096,1.1117,1.1136,1.1153,1.1171,1.1156,1.1181,1.1216,1.1236,1.1276,1.131,1.1338,1.1346,1.1327,1.1323,1.1336,1.1344,1.1348,1.1349,1.1182,1.132,1.1319,1.1318,1.1317,1.1317,1.1143,1.1174,1.1185,1.1215,1.1226,1.1242,1.1271,1.1271,1.13,1.133,1.1319,1.1361,1.1376,1.1412,1.1423,1.1457,1.1437,1.1456,1.1461,1.1467,1.1474,1.134,1.1462,1.1461,1.1461,1.1461,1.1461,0,1.1268,1.1273,1.1301,1.1325,1.135,1.1325,1.1343,1.1366,1.1402,1.1417,1.1443,1.1485,1.1518,1.1523,1.1555,1.1581,1.1573,1.159,1.159,1.1593,1.1488,1.1475,1.1597,1.1597,1.1597,1.1597,1.1597,1.1597,1.1335,1.1386,1.1381,1.1439,1.1444,1.1483,1.1496,1.1512,1.1524,1.1572,1.1599,1.16,1.1612,1.1645,1.1676,1.1676,1.1691,1.1712,1.171,1.1613,1.16,1.1587,1.1574,1.1715,1.1715,1.1812,1.1813,1.1813]},{"header":{"parameterUnit":"m.s-1","parameterCategory":1,"la1":30.2991,"la2":30.254,"lo1":-89.0895,"lo2":-89.0444,"dy":0.0017,"dx":0.0017,"nx":28,"ny":28,"refTime":"2025-07-22T03:00:00:Z","depth":0,"parameterNumber":3,"parameterNumberName":"V-component_of_WINDS"},"data":[0,0,0,0,0,0,0,0,0,0,0,0,0,0,0,0,0,0,0,0,0,0,0,0,0,0,0,0,0,0,0,0,0,0,0,0,0,0,0,0,0,0,0,0,0,0,0,0,0,0,0,0,0,0,0,0,0,0,-0.9314,-0.9313,0,-0.9205,-0.9203,-0.9202,-0.9248,-0.9251,-0.9253,-0.9256,-0.9137,-0.9131,-0.9126,0,0,0,0,0,0,0,0,0,0,0,0,0,-0.9558,-0.9553,-0.9314,-0.9313,-0.9311,-0.9205,-0.9203,-0.9202,-0.9248,-0.9251,-0.9254,-0.9257,-0.9139,-0.9132,-0.9125,0,0,0,0,0,0,0,0,0,0,0,0,0,-0.945,-0.9551,-0.9314,-0.9322,-0.9321,-0.9205,-0.9203,-0.9201,-0.9247,-0.9251,-0.9255,-0.9259,-0.9141,-0.9133,-0.9124,-0.8992,0,0,-0.9098,-0.9095,0,0,0,0,0,0,0,0,-0.9456,-0.9441,-0.9322,-0.9321,-0.932,-0.9244,-0.9245,-0.9131,-0.9246,-0.9275,-0.9256,-0.926,-0.9169,-0.9158,-0.9129,-0.8987,-0.8982,-0.9098,-0.9092,-0.9089,-0.9086,0,0,0,0,0,0,0,-0.9463,-0.9446,-0.9271,-0.932,-0.9319,-0.9329,-0.9318,-0.9224,-0.9201,-0.9273,-0.9276,-0.9263,-0.9169,-0.9137,-0.9126,-0.898,-0.9098,-0.909,-0.9085,-0.9082,-0.8726,-0.8722,0,0,0,0,0,0,-0.9472,-0.9452,-0.9274,-0.9267,-0.94,-0.9321,-0.9309,-0.9264,-0.9202,-0.9196,-0.9259,-0.9265,-0.9149,-0.9136,-0.9122,-0.8965,-0.9089,-0.9081,-0.9076,-0.873,-0.8725,-0.872,0,0,0,0,0,0,-0.9477,-0.9456,-0.9278,-0.936,-0.9339,-0.9313,-0.9262,-0.926,-0.9228,-0.9192,-0.9187,-0.9231,-0.9152,-0.9134,-0.9025,-0.8962,-0.9077,-0.9069,-0.8735,-0.8728,-0.8722,-0.8649,0,0,0,0,0,0,-0.9484,-0.9457,-0.9408,-0.9359,-0.9334,-0.9185,-0.9258,-0.9255,-0.9214,-0.9221,-0.9164,-0.9158,-0.9154,-0.9038,-0.9017,-0.8952,-0.9063,-0.8741,-0.8732,-0.8724,-0.8657,-0.8641,-0.8627,0,0,0,0,0,-0.9492,-0.939,-0.9405,-0.9384,-0.9273,-0.9181,-0.9166,-0.9165,-0.9209,-0.9159,-0.9136,-0.916,-0.8972,-0.9026,-0.9003,-0.8935,-0.8745,-0.8735,-0.8725,-0.8664,-0.8644,-0.8627,0,0,0,0,0,0,-0.9429,-0.9383,-0.94,-0.9279,-0.9234,-0.9189,-0.9125,-0.9144,-0.9083,-0.9092,-0.909,-0.9077,-0.8965,-0.8939,-0.9,-0.8805,-0.8865,-0.885,-0.8826,-0.8807,-0.8792,-0.8801,-0.9056,0,0,0,0,0,-0.9401,-0.9333,-0.9296,-0.9193,-0.9169,-0.9151,-0.9111,-0.9114,-0.9066,-0.9047,-0.9016,-0.8966,-0.8897,-0.885,-0.8783,-0.8653,-0.8642,-0.8595,-0.858,-0.8568,-0.8555,-0.8485,-0.8464,-0.8688,-0.8688,-0.8688,0,0,-0.9343,-0.9309,-0.9266,-0.9179,-0.9145,-0.9072,-0.9135,-0.9055,-0.9001,-0.9034,-0.893,-0.8905,-0.885,-0.8731,-0.8676,-0.8705,-0.8491,-0.8555,-0.8546,-0.8539,-0.8473,-0.8452,-0.8433,-0.8681,-0.8682,-0.8683,0,0,-0.92,-0.9167,-0.9079,-0.9044,-0.8991,-0.898,-0.8959,-0.8911,-0.8897,-0.8794,-0.8817,-0.8752,-0.8631,-0.8591,-0.8555,-0.8399,-0.8419,-0.8377,-0.8298,-0.823,-0.8213,-0.8197,-0.8142,-0.8122,-0.8364,-0.8364,-0.8364,0,-0.9133,-0.9027,-0.903,-0.8949,-0.8911,-0.894,-0.885,-0.8814,-0.8742,-0.8714,-0.8748,-0.8598,-0.8563,-0.8435,-0.8397,-0.8367,-0.8342,-0.8383,-0.8215,-0.82,-0.8185,-0.8133,-0.8112,-0.8359,-0.836,-0.836,-0.836,0,-0.8948,-0.8874,-0.8808,-0.8741,-0.8694,-0.8609,-0.8598,-0.855,-0.8558,-0.8543,-0.8437,-0.8396,-0.8323,-0.8292,-0.8297,-0.8165,-0.8185,-0.8217,-0.8277,-0.8159,-0.811,-0.809,-0.8352,-0.8354,-0.8355,-0.8356,0,0,-0.8761,-0.8698,-0.8674,-0.8645,-0.859,-0.8532,-0.8447,-0.8378,-0.8338,-0.8286,-0.8216,-0.8114,-0.8144,-0.8103,-0.8104,-0.8044,-0.7924,-0.8083,-0.8082,-0.8056,-0.7777,-0.7754,-0.7731,-0.7937,-0.7934,-0.7931,-0.7782,0,-0.8614,-0.847,-0.8471,-0.8336,-0.8268,-0.8296,-0.8222,-0.818,-0.8164,-0.8102,-0.8083,-0.8011,-0.8056,-0.8032,-0.7974,-0.7951,-0.7868,-0.7961,-0.7871,-0.7867,-0.7885,-0.7705,-0.768,-0.7542,-0.7763,-0.7759,-0.7757,0,-0.8424,-0.837,-0.823,-0.8187,-0.8158,-0.8092,-0.803,-0.7971,-0.7923,-0.7916,-0.7871,-0.7881,-0.7795,-0.7858,-0.7738,-0.7802,-0.7765,-0.7748,-0.7742,-0.7734,-0.7805,-0.7692,-0.7497,-0.7477,-0.7726,-0.7729,-0.7731,0,-0.8303,-0.8195,-0.8098,-0.8071,-0.8018,-0.7972,-0.7947,-0.7904,-0.7862,-0.7807,-0.778,-0.7714,-0.7677,-0.7625,-0.7617,-0.7664,-0.7497,-0.756,-0.7488,-0.7488,-0.7452,-0.7454,-0.7249,-0.7426,-0.7427,-0.7427,-0.7427,0,-0.814,-0.8053,-0.8043,-0.7983,-0.7887,-0.7888,-0.7792,-0.7771,-0.7732,-0.7668,-0.7686,-0.7625,-0.7618,-0.7554,-0.7547,-0.7449,-0.7432,-0.7423,-0.7422,-0.7422,-0.7423,-0.7398,-0.7408,-0.7422,-0.7423,-0.7424,-0.7425,0,-0.7989,-0.7979,-0.7875,-0.7834,-0.7822,-0.7752,-0.7717,-0.7659,-0.7645,-0.7563,-0.7544,-0.7521,-0.7448,-0.7435,-0.7346,-0.7342,-0.7226,-0.7234,-0.7243,-0.7244,-0.7174,-0.7181,-0.6945,-0.6915,-0.7111,-0.7109,-0.7108,0,-0.7886,-0.782,-0.7773,-0.7733,-0.7707,-0.764,-0.76,-0.7598,-0.7554,-0.7496,-0.7445,-0.7374,-0.7317,-0.7197,-0.7172,-0.7105,-0.7112,-0.7034,-0.7102,-0.7105,-0.7112,-0.7117,-0.7111,-0.7021,-0.7019,-0.7018,-0.7016,0,-0.7704,-0.7703,-0.7645,-0.7584,-0.7536,-0.7487,-0.7442,-0.7407,-0.7399,-0.7349,-0.7275,-0.7231,-0.7143,-0.7072,-0.7006,-0.6978,-0.6995,-0.6995,-0.6975,-0.6975,-0.6983,-0.6979,-0.7208,-0.7001,-0.7002,-0.7003,-0.7004,-0.7005,-0.7575,-0.7518,-0.7478,-0.7412,-0.7378,-0.7335,-0.728,-0.726,-0.72,-0.713,-0.7132,-0.7051,-0.7006,-0.6919,-0.6887,-0.6823,-0.6848,-0.6819,-0.6812,-0.6805,-0.6799,-0.6993,-0.6811,-0.6811,-0.6812,-0.6812,-0.6812,0,-0.7395,-0.7371,-0.7311,-0.7248,-0.7196,-0.722,-0.7171,-0.7125,-0.7055,-0.7012,-0.6957,-0.6872,-0.6804,-0.6774,-0.6706,-0.666,-0.6667,-0.6643,-0.6646,-0.664,-0.678,-0.6804,-0.6639,-0.6639,-0.6639,-0.6639,-0.6639,-0.6639,-0.7296,-0.7203,-0.7197,-0.7087,-0.7062,-0.6985,-0.6956,-0.6916,-0.6883,-0.6788,-0.6733,-0.6715,-0.6677,-0.6607,-0.6545,-0.6538,-0.6512,-0.6485,-0.6481,-0.6612,-0.663,-0.6647,-0.667,-0.6479,-0.6479,-0.6347,-0.6346,-0.6345]}]]